TimeEDT,TemperatureF,Dew PointF,Humidity,Sea Level PressureIn,VisibilityMPH,Wind Direction,Wind SpeedMPH,Gust SpeedMPH,PrecipitationIn,Events,Conditions,WindDirDegrees,DateUTC
12:54 AM,48.9,41.0,74,30.20,10.0,South,3.5,-,N/A,,Clear,190,2011-10-04 04:54:00
1:54 AM,50.0,39.9,68,30.20,10.0,Calm,Calm,-,N/A,,Clear,0,2011-10-04 05:54:00
2:54 AM,48.0,41.0,77,30.20,10.0,SSW,3.5,-,N/A,,Clear,200,2011-10-04 06:54:00
3:54 AM,44.1,39.9,85,30.20,10.0,Calm,Calm,-,N/A,,Clear,0,2011-10-04 07:54:00
4:54 AM,46.9,39.9,77,30.21,10.0,Calm,Calm,-,N/A,,Clear,0,2011-10-04 08:54:00
5:54 AM,44.1,39.9,85,30.23,10.0,Calm,Calm,-,N/A,,Clear,0,2011-10-04 09:54:00
6:54 AM,42.1,39.9,92,30.25,10.0,SSW,3.5,-,N/A,,Clear,200,2011-10-04 10:54:00
7:54 AM,45.0,41.0,86,30.27,10.0,Calm,Calm,-,N/A,,Clear,0,2011-10-04 11:54:00
8:54 AM,50.0,45.0,83,30.28,10.0,Calm,Calm,-,N/A,,Clear,0,2011-10-04 12:54:00
9:54 AM,57.2,46.4,67,30.30,10.0,Calm,Calm,-,N/A,,Clear,0,2011-10-04 13:54:00
10:54 AM,62.1,46.0,56,30.30,10.0,Calm,Calm,-,N/A,,Clear,0,2011-10-04 14:54:00
11:54 AM,68.0,44.6,43,30.31,10.0,Calm,Calm,-,N/A,,Clear,0,2011-10-04 15:54:00
12:54 PM,71.1,43.0,36,30.30,10.0,NNE,5.8,-,0.00,,Clear,20,2011-10-04 16:54:00
1:54 PM,69.8,41.0,35,30.29,10.0,SW,3.5,-,N/A,,Clear,230,2011-10-04 17:54:00
2:54 PM,73.4,46.4,38,30.28,10.0,Calm,Calm,-,N/A,,Clear,0,2011-10-04 18:54:00
3:54 PM,73.0,46.0,38,30.26,10.0,NNW,4.6,-,N/A,,Clear,330,2011-10-04 19:54:00
4:54 PM,73.0,46.9,39,30.25,10.0,Calm,Calm,-,N/A,,Clear,0,2011-10-04 20:54:00
5:54 PM,73.0,48.0,41,30.24,10.0,Calm,Calm,-,N/A,,Clear,0,2011-10-04 21:54:00
6:54 PM,70.0,48.0,46,30.24,10.0,Calm,Calm,-,N/A,,Clear,0,2011-10-04 22:54:00
7:54 PM,64.9,50.0,58,30.25,10.0,Calm,Calm,-,N/A,,Clear,0,2011-10-04 23:54:00
8:54 PM,57.9,50.0,75,30.26,10.0,Calm,Calm,-,N/A,,Clear,0,2011-10-05 00:54:00
9:54 PM,55.4,48.2,77,30.27,10.0,SE,3.5,-,N/A,,Clear,140,2011-10-05 01:54:00
10:54 PM,57.9,48.9,72,30.26,10.0,Calm,Calm,-,N/A,,Clear,0,2011-10-05 02:54:00
11:54 PM,54.0,48.0,80,30.27,10.0,Calm,Calm,-,N/A,,Clear,0,2011-10-05 03:54:00